Location: Berlin
(42.3812°N, 71.6370°W)
Time: 20:16:27
(UTC+00:00)

Cosmos 1420 Rocket - Pass Details

Date: 15 November 2025
Orbit: 750 x 776 km, 74.0° (Epoch: 11 December)

Event Time Altitude Azimuth Distance (km) Brightness Sun altitude
Exits shadow 09:38:45 48° 300° (WNW) 1,008 4.2 -21.9°
Drops below altitude 10° 09:43:45 10° 9° (N) 2,333 6.5 -21.0°
Sets 09:46:14 0° 16° (NNE) 3,266 7.4 -20.6°
